Weather History for Mexicali, Mexico

Change the Weather History Date:

Tuesday, October 2, 2012

  Actual Average Record
Temperature  
Mean Temperature 90 °F -  
Max Temperature 109 °F 87 °F 109 °F (2012)
Min Temperature 71 °F 59 °F 55 °F (2002)
Cooling Degree Days 25    
Growing Degree Days 40 (Base 50)    
Moisture  
Dew Point 34 °F    
Average Humidity 16    
Maximum Humidity 34    
Minimum Humidity 5    
Precipitation  
Precipitation 0.00 in - - ()
Sea Level Pressure  
Sea Level Pressure 29.77 in    
Wind  
Wind Speed 1 mph ()    
Max Wind Speed 8 mph    
Max Gust Speed -    
Visibility 10.0 miles    
Events      
Averages and records for this station are not official NWS values.
T = Trace of Precipitation, MM = Missing Value Source: Averaged Metar Reports

Daily Weather History Graph

Daily Weather History Graph

Search for Another Location

Airport:

Trip Planner

Search our weather history database for the weather conditions in past years. The results will help you decide how hot, cold, wet, or windy it might be!

Date:

Astronomy

Oct. 02, 2012 Rise Set
Actual Time 6:36 AM PDT 6:23 PM PDT
Civil Twilight 6:11 AM PDT 6:48 PM PDT
Nautical Twilight 5:43 AM PDT 7:16 PM PDT
Astronomical Twilight 5:14 AM PDT 7:45 PM PDT
Moon 7:51 PM PDT (10/2) 8:56 AM PDT (10/2)
Length of Visible Light 12h 36m
Length of Day
11h 47m
Waning Gibbous, 93% of the Moon is Illuminated
Oct 2
Waning Gibbous
Oct 8
Last Quarter
Oct 15
New
Oct 21
First Quarter
Oct 29
Full

Hourly Weather History & Observations

Time (PDT) Temp. Dew Point Humidity Pressure Visibility Wind Dir Wind Speed Gust Speed Precip Events Conditions
12:45 AM 80.6 °F 32.0 °F 17% 29.77 in 10.0 mi Calm Calm - N/A   Clear
4:40 AM 77.0 °F 33.8 °F 21% 29.76 in 10.0 mi Calm Calm - N/A   Clear
5:40 AM 75.2 °F 37.4 °F 25% 29.76 in 10.0 mi WNW 6.9 mph - N/A   Clear
6:48 AM 71.6 °F 35.6 °F 27% 29.78 in 10.0 mi Calm Calm - N/A   Clear
7:51 AM 75.2 °F 37.4 °F 25% 29.84 in 10.0 mi Calm Calm - N/A   Clear
8:23 AM 80.6 °F 37.4 °F 21% 29.81 in 10.0 mi Calm Calm - N/A   Clear
8:47 AM 84.2 °F 33.8 °F 16% 29.82 in 10.0 mi Calm Calm - N/A   Clear
9:29 AM 91.4 °F 30.2 °F 11% 29.82 in 10.0 mi Calm Calm - N/A   Clear
9:48 AM 93.2 °F 32.0 °F 11% 29.82 in 10.0 mi Calm Calm - N/A   Clear
10:53 AM 98.6 °F 28.4 °F 8% 29.82 in 10.0 mi Calm Calm - N/A   Clear
11:53 AM 102.2 °F 28.4 °F 7% 29.81 in 10.0 mi Calm Calm - N/A   Clear
12:45 PM 105.8 °F 26.6 °F 6% 29.78 in 10.0 mi Calm Calm - N/A   Clear
1:41 PM 107.6 °F 26.6 °F 6% 29.76 in 10.0 mi Calm Calm - N/A   Clear
2:45 PM 107.6 °F 26.6 °F 6% 29.73 in 10.0 mi Calm Calm - N/A   Clear
3:51 PM 109.4 °F 26.6 °F 6% 29.71 in 10.0 mi Calm Calm - N/A   Clear
4:53 PM 107.6 °F 24.8 °F 5% 29.76 in 10.0 mi Calm Calm - N/A   Clear
5:47 PM 105.8 °F 26.6 °F 6% 29.70 in 10.0 mi Calm Calm - N/A   Clear
6:50 PM 96.8 °F 33.8 °F 11% 29.70 in 10.0 mi Calm Calm - N/A   Clear
7:47 PM 91.4 °F 39.2 °F 16% 29.78 in 10.0 mi Calm Calm - N/A   Clear
8:45 PM 87.8 °F 42.8 °F 21% 29.74 in 10.0 mi South 8.1 mph - N/A   Clear
9:44 PM 86.0 °F 46.4 °F 25% 29.75 in 10.0 mi SE 6.9 mph - N/A   Clear
10:51 PM 82.4 °F 50.0 °F 32% 29.77 in 10.0 mi Calm Calm - N/A   Clear
11:54 PM 80.6 °F 50.0 °F 34% 29.75 in 10.0 mi Calm Calm - N/A   Clear